Date String (YYYY-MM-DD hh:mm:ss) UTC,Instrument flags,Ambient pressure (hPa),Sample flow (lpm),Bypass flow (lpm),Sample temperature (°C),Ambient temperature (°C),ASC tube jacket temperature (°C),LED temperature (°C),Box temperature (°C),Sample RH (%),Span deviation,Mass concentration (μg/m³),Mass concentration (μg/m³),Mass concentration (μg/m³)
DateTimeUTC,F1_M11,P_M11,Q1_M11,Q2_M11,T1_M11,T2_M11,T3_M11,T4_M11,T5_M11,U1_M11,ZSPAN_M11,X0_M11,X2_M11,X1_M11
2021-10-31 00:00:00,,0827.5,5.01,0.00,30.2,29.3,00.0,39.1,32.0,15.4,0000.0,0014.93,0002.78,0001.24
2021-10-31 00:01:00,,0827.5,5.00,0.00,30.2,29.3,00.0,39.1,32.0,15.4,0000.0,0014.05,0002.90,0001.23
2021-10-31 00:02:00,,0827.5,5.00,0.00,30.3,29.3,00.0,39.2,32.1,15.4,0000.0,0013.43,0002.84,0001.22
2021-10-31 00:03:00,,0827.5,5.00,0.00,30.3,29.4,00.0,39.2,32.1,15.4,0000.0,0013.72,0002.86,0001.21
2021-10-31 00:04:00,,0827.5,4.99,0.00,30.3,29.4,00.0,39.2,32.1,15.4,0000.0,0014.07,0002.82,0001.20
2021-10-31 00:05:00,,0827.6,5.01,0.00,30.3,29.4,00.0,39.2,32.1,15.4,0000.0,0014.05,0002.90,0001.20
2021-10-31 00:06:00,,0827.6,5.00,0.00,30.3,29.4,00.0,39.2,32.1,15.4,0000.0,0013.56,0002.84,0001.19
2021-10-31 00:07:00,,0827.6,5.00,0.00,30.3,29.5,00.0,39.2,32.1,15.4,0000.0,0013.46,0002.78,0001.18
2021-10-31 00:08:00,,0827.7,4.99,0.00,30.4,29.5,00.0,39.3,32.1,15.4,0000.0,0012.53,0002.74,0001.18
2021-10-31 00:09:00,,0827.8,5.01,0.00,30.4,29.5,00.0,39.3,32.2,15.4,0000.0,0012.93,0002.73,0001.18
2021-10-31 00:10:00,,0827.7,4.99,0.00,30.4,29.5,00.0,39.3,32.2,15.4,0000.0,0013.20,0002.69,0001.17
2021-10-31 00:11:00,,0827.7,5.00,0.00,30.4,29.5,00.0,39.3,32.2,15.4,0000.0,0013.89,0002.66,0001.17
2021-10-31 00:12:00,,0827.7,5.00,0.00,30.4,29.6,00.0,39.3,32.2,15.4,0000.0,0014.87,0002.65,0001.17
2021-10-31 00:13:00,,0827.7,5.00,0.00,30.4,29.6,00.0,39.3,32.2,15.4,0000.0,0016.61,0002.67,0001.17
2021-10-31 00:14:00,,0827.7,4.99,0.00,30.4,29.6,00.0,39.3,32.2,15.4,0000.0,0016.26,0002.65,0001.15
2021-10-31 00:15:00,,0827.8,5.00,0.00,30.4,29.6,00.0,39.4,32.2,15.4,0000.0,0016.32,0002.65,0001.14
2021-10-31 00:16:00,,0827.8,5.02,0.00,30.4,29.6,00.0,39.4,32.2,15.4,0000.0,0016.55,0002.58,0001.14
2021-10-31 00:17:00,,0827.8,4.99,0.00,30.5,29.4,00.0,39.4,32.2,15.4,0000.0,0017.15,0002.51,0001.14
2021-10-31 00:18:00,,0827.8,5.02,0.00,30.4,27.2,00.0,39.4,31.7,15.5,0000.0,0017.93,0002.56,0001.14
2021-10-31 00:19:00,,0827.8,4.99,0.00,30.2,26.2,00.0,39.3,31.5,15.7,0000.0,0018.25,0002.53,0001.13
2021-10-31 00:20:00,,0827.8,4.99,0.00,30.1,26.3,00.0,39.3,31.4,15.8,0000.0,0017.89,0002.53,0001.13
2021-10-31 00:21:00,,0827.8,5.01,0.00,30.0,26.8,00.0,39.2,31.4,15.9,0000.0,0017.37,0002.52,0001.12
2021-10-31 00:22:00,,0827.8,4.99,0.00,29.9,27.2,00.0,39.2,31.5,15.9,0000.0,0016.88,0002.55,0001.13
2021-10-31 00:23:00,,0827.9,5.00,0.00,29.9,27.6,00.0,39.1,31.5,16.0,0000.0,0015.75,0002.44,0001.12
2021-10-31 00:24:00,,0827.9,5.01,0.00,29.9,27.9,00.0,39.1,31.6,16.0,0000.0,0014.24,0002.45,0001.11
2021-10-31 00:25:00,,0827.9,5.00,0.00,29.9,28.2,00.0,39.1,31.6,16.1,0000.0,0013.68,0002.50,0001.10
2021-10-31 00:26:00,,0827.9,5.00,0.00,29.9,28.3,00.0,39.0,31.7,16.1,0000.0,0012.78,0002.51,0001.11
2021-10-31 00:27:00,,0827.8,4.99,0.00,30.0,28.5,00.0,39.0,31.7,16.1,0000.0,0013.27,0002.54,0001.10
2021-10-31 00:28:00,,0827.9,5.00,0.00,30.0,28.6,00.0,39.0,31.7,16.1,0000.0,0013.75,0002.57,0001.08
2021-10-31 00:29:00,,0827.9,5.01,0.00,30.0,28.7,00.0,39.0,31.7,16.1,0000.0,0013.02,0002.55,0001.08
2021-10-31 00:30:00,,0828.0,5.01,0.00,30.0,28.8,00.0,39.0,31.7,16.1,0000.0,0012.27,0002.59,0001.07
2021-10-31 00:31:00,,0828.0,5.00,0.00,30.0,28.9,00.0,39.0,31.8,16.1,0000.0,0012.27,0002.60,0001.06
2021-10-31 00:32:00,,0827.9,5.00,0.00,30.0,28.9,00.0,39.0,31.8,16.1,0000.0,0012.63,0002.58,0001.06
2021-10-31 00:33:00,,0828.0,4.99,0.00,30.1,29.0,00.0,39.1,31.9,16.1,0000.0,0012.31,0002.49,0001.05
2021-10-31 00:34:00,,0828.1,5.00,0.00,30.1,29.1,00.0,39.1,31.9,16.0,0000.0,0013.00,0002.52,0001.04
2021-10-31 00:35:00,,0828.1,5.00,0.00,30.1,29.1,00.0,39.1,31.9,15.9,0000.0,0013.18,0002.55,0001.04
2021-10-31 00:36:00,,0828.2,5.00,0.00,30.1,29.2,00.0,39.1,31.9,15.8,0000.0,0013.50,0002.53,0001.05
2021-10-31 00:37:00,,0828.2,5.00,0.00,30.1,29.2,00.0,39.1,31.9,15.8,0000.0,0013.46,0002.56,0001.08
2021-10-31 00:38:00,,0828.3,4.99,0.00,30.2,29.3,00.0,39.1,32.0,15.9,0000.0,0013.23,0002.58,0001.10
2021-10-31 00:39:00,,0828.3,5.01,0.00,30.2,29.3,00.0,39.1,32.0,15.9,0000.0,0012.15,0002.57,0001.10
2021-10-31 00:40:00,,0828.3,5.00,0.00,30.2,29.3,00.0,39.1,32.0,16.0,0000.0,0011.90,0002.52,0001.11
2021-10-31 00:41:00,,0828.3,4.99,0.00,30.2,29.4,00.0,39.1,32.0,16.0,0000.0,0011.69,0002.51,0001.11
2021-10-31 00:42:00,,0828.3,4.99,0.00,30.2,29.4,00.0,39.2,32.0,16.0,0000.0,0010.95,0002.45,0001.11
2021-10-31 00:43:00,,0828.3,5.02,0.00,30.2,29.4,00.0,39.2,32.0,16.0,0000.0,0010.97,0002.42,0001.10
2021-10-31 00:44:00,,0828.3,5.00,0.00,30.3,29.4,00.0,39.2,32.0,16.1,0000.0,0010.71,0002.44,0001.10
2021-10-31 00:45:00,,0828.4,5.00,0.00,30.3,29.4,00.0,39.2,32.0,16.1,0000.0,0009.98,0002.39,0001.10
2021-10-31 00:46:00,,0828.4,5.00,0.00,30.3,29.4,00.0,39.2,32.1,16.2,0000.0,0009.89,0002.26,0001.12
2021-10-31 00:47:00,,0828.4,5.00,0.00,30.3,29.4,00.0,39.2,32.1,16.1,0000.0,0009.76,0002.25,0001.13
2021-10-31 00:48:00,,0828.5,5.01,0.00,30.3,29.4,00.0,39.2,32.1,16.1,0000.0,0009.82,0002.22,0001.14
2021-10-31 00:49:00,,0828.5,5.00,0.00,30.3,29.4,00.0,39.2,32.1,16.1,0000.0,0009.82,0002.23,0001.17
2021-10-31 00:50:00,,0828.5,4.99,0.00,30.3,29.4,00.0,39.3,32.1,16.1,0000.0,0009.59,0002.24,0001.23
2021-10-31 00:51:00,,0828.5,4.99,0.00,30.3,29.4,00.0,39.3,32.1,16.1,0000.0,0009.44,0002.34,0001.30
2021-10-31 00:52:00,,0828.5,5.01,0.00,30.3,29.5,00.0,39.3,32.1,16.1,0000.0,0009.49,0002.41,0001.40
2021-10-31 00:53:00,,0828.7,5.00,0.00,30.4,29.5,00.0,39.3,32.1,16.1,0000.0,0010.03,0002.50,0001.49
2021-10-31 00:54:00,,0828.8,5.00,0.00,30.4,29.5,00.0,39.3,32.1,16.1,0000.0,0009.96,0002.62,0001.60
2021-10-31 00:55:00,,0828.9,5.00,0.00,30.4,29.5,00.0,39.3,32.1,16.1,0000.0,0010.04,0002.77,0001.71
2021-10-31 00:56:00,,0829.1,5.01,0.00,30.4,29.5,00.0,39.3,32.1,16.0,0000.0,0010.29,0002.91,0001.77
2021-10-31 00:57:00,,0829.1,5.00,0.00,30.4,29.5,00.0,39.4,32.2,16.0,0000.0,0010.64,0003.01,0001.80
2021-10-31 00:58:00,,0828.8,5.01,0.00,30.4,29.5,00.0,39.4,32.2,15.9,0000.0,0010.78,0003.08,0001.82
2021-10-31 00:59:00,,0828.9,4.99,0.00,30.4,29.5,00.0,39.4,32.2,15.9,0000.0,0011.27,0003.07,0001.81
